• In Italy
  • List of Countries
  • For 7 days
  • Water Temperature
  • Satellite Maps
  • Weather Map
  • Weather Widgets
  • user-avatar
    Login

    Hourly Weather Yerevan

    Today, 18 December, Monday

    Time Temperature Precipitation Wind Pressure Humidity
    00:00 +5°C° 0 mm 1 mps 693 mmHg 47%
    01:00 +5°C° 0 mm 1 mps 693 mmHg 48%
    02:00 +5°C° 0 mm 1 mps 693 mmHg 49%
    03:00 +4°C° 0 mm 2 mps 693 mmHg 53%
    04:00 +5°C° 0 mm 1 mps 693 mmHg 55%
    05:00 +5°C° 0 mm 1 mps 693 mmHg 57%
    06:00 +5°C° 0 mm 1 mps 693 mmHg 59%
    07:00 +5°C° 0 mm 1 mps 693 mmHg 58%
    08:00 +6°C° 0 mm 1 mps 693 mmHg 57%
    09:00 +7°C° 0 mm 2 mps 693 mmHg 57%
    10:00 +8°C° 0 mm 2 mps 693 mmHg 56%
    11:00 +9°C° 0 mm 2 mps 693 mmHg 55%
    12:00 +10°C° 0 mm 2 mps 693 mmHg 55%
    13:00 +10°C° 0 mm 2 mps 692 mmHg 56%
    14:00 +10°C° 0 mm 2 mps 692 mmHg 56%
    15:00 +10°C° 0 mm 2 mps 692 mmHg 57%
    16:00 +9°C° 0 mm 2 mps 692 mmHg 59%
    17:00 +7°C° 0 mm 2 mps 692 mmHg 61%
    18:00 +6°C° 0 mm 2 mps 692 mmHg 63%
    19:00 +6°C° 0 mm 2 mps 692 mmHg 64%
    20:00 +6°C° 0 mm 2 mps 693 mmHg 64%
    21:00 +7°C° 0 mm 1 mps 693 mmHg 65%
    22:00 +5°C° 0 mm 2 mps 692 mmHg 66%
    23:00 +5°C° 0 mm 2 mps 692 mmHg 66%

    Tomorrow, 19 December, Tuesday

    Time Temperature Precipitation Wind Pressure Humidity
    00:00 +5°C° 0 mm 2 mps 692 mmHg 67%
    01:00 +5°C° 0 mm 2 mps 692 mmHg 67%
    02:00 +5°C° 0 mm 2 mps 692 mmHg 67%
    03:00 +5°C° 0 mm 2 mps 692 mmHg 68%
    04:00 +5°C° 0 mm 2 mps 692 mmHg 68%
    05:00 +4°C° 0 mm 2 mps 692 mmHg 68%
    06:00 +4°C° 0 mm 2 mps 692 mmHg 69%
    07:00 +5°C° 0 mm 2 mps 693 mmHg 67%
    08:00 +6°C° 0 mm 2 mps 693 mmHg 65%
    09:00 +7°C° 0 mm 2 mps 693 mmHg 63%
    10:00 +8°C° 0 mm 2 mps 693 mmHg 61%
    11:00 +9°C° 0 mm 2 mps 693 mmHg 59%
    12:00 +10°C° 0 mm 2 mps 693 mmHg 56%
    13:00 +10°C° 0 mm 2 mps 692 mmHg 56%
    14:00 +12°C° 0 mm 2 mps 692 mmHg 56%
    15:00 +12°C° 0 mm 2 mps 692 mmHg 55%
    16:00 +9°C° 0 mm 2 mps 692 mmHg 58%
    17:00 +8°C° 0 mm 2 mps 693 mmHg 60%
    18:00 +7°C° 0 mm 2 mps 693 mmHg 62%
    19:00 +6°C° 0 mm 2 mps 693 mmHg 63%
    20:00 +6°C° 0 mm 2 mps 693 mmHg 63%
    21:00 +6°C° 0 mm 2 mps 694 mmHg 63%
    22:00 +6°C° 0 mm 2 mps 694 mmHg 64%
    23:00 +6°C° 0 mm 2 mps 694 mmHg 64%

    Day after tomorrow, 20 December, Wednesday

    Time Temperature Precipitation Wind Pressure Humidity
    00:00 +5°C° 0 mm 2 mps 694 mmHg 64%
    01:00 +5°C° 0 mm 2 mps 694 mmHg 64%
    02:00 +5°C° 0 mm 2 mps 694 mmHg 64%
    03:00 +5°C° 0 mm 2 mps 694 mmHg 64%
    04:00 +5°C° 0 mm 2 mps 694 mmHg 64%
    05:00 +5°C° 0 mm 2 mps 694 mmHg 63%
    06:00 +5°C° 0 mm 2 mps 694 mmHg 63%
    07:00 +6°C° 0 mm 2 mps 694 mmHg 62%
    08:00 +7°C° 0 mm 2 mps 695 mmHg 61%
    09:00 +7°C° 0 mm 2 mps 695 mmHg 60%
    10:00 +8°C° 0.2 mm 2 mps 695 mmHg 60%
    11:00 +9°C° 0.2 mm 2 mps 695 mmHg 61%
    12:00 +10°C° 0.2 mm 3 mps 694 mmHg 61%
    13:00 +10°C° 0.3 mm 3 mps 694 mmHg 63%
    14:00 +9°C° 0.3 mm 3 mps 694 mmHg 65%
    15:00 +9°C° 0.3 mm 3 mps 694 mmHg 67%
    16:00 +9°C° 0.2 mm 3 mps 694 mmHg 69%
    17:00 +8°C° 0.2 mm 2 mps 694 mmHg 71%
    18:00 +8°C° 0.2 mm 2 mps 694 mmHg 73%
    19:00 +7°C° 0.1 mm 2 mps 694 mmHg 73%
    20:00 +7°C° 0.1 mm 2 mps 694 mmHg 74%
    21:00 +7°C° 0.1 mm 2 mps 694 mmHg 74%
    22:00 +7°C° 0.1 mm 2 mps 695 mmHg 74%
    23:00 +7°C° 0.1 mm 2 mps 695 mmHg 74%

    21 December, Thursday

    Time Temperature Precipitation Wind Pressure Humidity
    00:00 +7°C° 0.1 mm 2 mps 695 mmHg 75%
    01:00 +7°C° 0.2 mm 2 mps 695 mmHg 75%
    02:00 +7°C° 0.2 mm 2 mps 695 mmHg 76%
    03:00 +8°C° 0.2 mm 2 mps 695 mmHg 77%
    04:00 +7°C° 0.1 mm 2 mps 695 mmHg 78%
    05:00 +7°C° 0.1 mm 2 mps 695 mmHg 78%
    06:00 +7°C° 0.1 mm 2 mps 695 mmHg 79%
    07:00 +7°C° 0.1 mm 2 mps 695 mmHg 77%
    08:00 +8°C° 0.1 mm 2 mps 695 mmHg 74%
    09:00 +9°C° 0.1 mm 2 mps 696 mmHg 72%
    10:00 +10°C° 0.1 mm 2 mps 695 mmHg 69%
    11:00 +12°C° 0.1 mm 2 mps 695 mmHg 67%
    12:00 +12°C° 0.1 mm 3 mps 695 mmHg 64%
    13:00 +12°C° 0 mm 3 mps 694 mmHg 63%
    14:00 +12°C° 0 mm 3 mps 694 mmHg 62%
    15:00 +12°C° 0 mm 3 mps 694 mmHg 60%
    16:00 +12°C° 0 mm 2 mps 694 mmHg 62%
    17:00 +9°C° 0 mm 2 mps 694 mmHg 65%
    18:00 +8°C° 0 mm 2 mps 694 mmHg 67%
    19:00 +8°C° 0 mm 2 mps 694 mmHg 66%
    20:00 +8°C° 0 mm 2 mps 694 mmHg 66%
    21:00 +7°C° 0 mm 2 mps 694 mmHg 66%
    22:00 +7°C° 0 mm 2 mps 694 mmHg 67%
    23:00 +7°C° 0 mm 2 mps 694 mmHg 67%

    22 December, Friday

    Time Temperature Precipitation Wind Pressure Humidity
    00:00 +7°C° 0 mm 2 mps 694 mmHg 67%
    01:00 +7°C° 0 mm 2 mps 694 mmHg 67%
    02:00 +7°C° 0 mm 2 mps 693 mmHg 68%
    03:00 +7°C° 0 mm 2 mps 693 mmHg 68%
    04:00 +6°C° 0 mm 2 mps 693 mmHg 68%
    05:00 +6°C° 0 mm 2 mps 692 mmHg 69%
    06:00 +6°C° 0 mm 2 mps 692 mmHg 69%
    07:00 +7°C° 0 mm 2 mps 692 mmHg 68%
    08:00 +7°C° 0 mm 2 mps 692 mmHg 66%
    09:00 +8°C° 0 mm 2 mps 691 mmHg 65%
    10:00 +9°C° 0.3 mm 3 mps 691 mmHg 64%
    11:00 +9°C° 0.3 mm 3 mps 690 mmHg 63%
    12:00 +10°C° 0.3 mm 3 mps 689 mmHg 63%
    13:00 +10°C° 0.2 mm 3 mps 689 mmHg 63%
    14:00 +10°C° 0.2 mm 4 mps 689 mmHg 64%
    15:00 +10°C° 0.2 mm 4 mps 688 mmHg 64%
    16:00 +10°C° 0.2 mm 3 mps 688 mmHg 67%
    17:00 +9°C° 0.2 mm 3 mps 688 mmHg 69%
    18:00 +8°C° 0.2 mm 3 mps 688 mmHg 72%
    19:00 +8°C° 0.1 mm 3 mps 688 mmHg 72%
    20:00 +8°C° 0.1 mm 3 mps 688 mmHg 73%
    21:00 +8°C° 0.1 mm 2 mps 688 mmHg 73%
    22:00 +8°C° 0.2 mm 2 mps 688 mmHg 75%
    23:00 +8°C° 0.2 mm 3 mps 688 mmHg 76%

    23 December, Saturday

    Time Temperature Precipitation Wind Pressure Humidity
    00:00 +7°C° 0.2 mm 3 mps 687 mmHg 77%
    01:00 +7°C° 0.2 mm 2 mps 687 mmHg 77%
    02:00 +7°C° 0.2 mm 2 mps 687 mmHg 78%
    03:00 +7°C° 0.2 mm 2 mps 687 mmHg 78%
    04:00 +7°C° 0.2 mm 2 mps 687 mmHg 78%
    05:00 +7°C° 0.2 mm 2 mps 687 mmHg 78%
    06:00 +7°C° 0.2 mm 2 mps 687 mmHg 79%
    07:00 +7°C° 0.2 mm 2 mps 688 mmHg 77%
    08:00 +8°C° 0.2 mm 2 mps 688 mmHg 75%
    09:00 +8°C° 0.2 mm 3 mps 688 mmHg 74%
    10:00 +9°C° 0.2 mm 3 mps 688 mmHg 71%
    11:00 +10°C° 0.2 mm 3 mps 687 mmHg 68%
    12:00 +11°C° 0.2 mm 4 mps 687 mmHg 65%
    13:00 +11°C° 0.1 mm 4 mps 686 mmHg 65%
    14:00 +11°C° 0.1 mm 4 mps 686 mmHg 64%
    15:00 +11°C° 0.1 mm 4 mps 685 mmHg 63%
    16:00 +10°C° 0.3 mm 4 mps 685 mmHg 66%
    17:00 +10°C° 0.3 mm 4 mps 685 mmHg 68%
    18:00 +8°C° 0.3 mm 4 mps 684 mmHg 71%
    19:00 +8°C° 0.5 mm 4 mps 684 mmHg 72%
    20:00 +8°C° 0.5 mm 4 mps 684 mmHg 73%
    21:00 +8°C° 0.5 mm 4 mps 683 mmHg 74%
    22:00 +8°C° 0.4 mm 4 mps 683 mmHg 75%
    23:00 +8°C° 0.4 mm 4 mps 682 mmHg 75%
    Show more